Wind_Speed
25 25 24 23 22 21 20 18 17 15 14 13 12 11 10 10 9 7 6 5 4 3 2 2 3 3 3 4 4 4 4 4 5 5 5 6 6 7 7 8 8 9 10 11 11 12 13 14 15 15 16 17 17 18 18 18 19 19 20 20 20 20 20 21 21 21 21 21 20
25 25 24 23 22 21 19 18 16 14 13 12 11 10 9 9 8 8 7 6 4 3 2 2 2 3 4 4 5 5 5 5 5 6 6 6 7 7 8 8 9 10 10 11 12 13 14 15 16 16 17 17 18 19 19 19 20 20 20 21 21 21 21 21 21 21 21 21 21
25 24 23 22 21 20 18 17 16 14 13 11 10 10 9 9 8 8 7 6 4 3 1 1 2 3 4 5 5 5 5 6 6 6 7 7 8 8 9 9 10 10 11 12 13 14 15 15 16 17 18 18 19 19 20 20 20 21 21 21 22 22 22 21 21 21 21 21 21
24 23 22 21 19 18 18 17 15 14 13 12 11 10 10 9 9 8 7 5 4 2 1 1 2 3 4 5 5 5 6 6 7 7 8 8 9 9 9 10 11 11 12 13 14 15 15 16 17 17 18 19 19 20 20 21 21 21 21 22 22 22 22 22 22 22 22 21 21
23 22 21 20 19 18 16 16 15 14 13 12 12 11 10 9 8 7 6 5 3 2 1 1 2 3 4 5 5 6 6 7 7 8 8 9 9 10 10 11 11 12 13 14 14 15 16 17 17 18 18 19 20 20 20 21 21 22 22 22 23 23 22 23 22 22 22 22 21
23 22 21 19 19 18 17 15 15 14 13 12 12 11 10 9 8 6 5 4 3 1 1 1 2 3 4 5 5 6 7 7 8 8 9 10 10 11 11 12 12 13 14 14 15 16 16 17 18 18 18 19 20 20 21 21 22 23 23 23 23 23 23 23 23 23 23 22 21
23 22 21 19 19 18 17 16 15 14 13 12 12 11 10 9 7 6 4 3 2 1 1 1 2 3 4 5 6 7 7 8 8 9 10 10 11 11 12 13 13 14 14 15 16 16 17 17 18 18 19 19 20 21 21 22 23 23 24 24 24 24 24 24 23 23 23 22 21
22 21 20 19 18 17 16 16 15 14 13 13 12 11 9 8 6 5 3 2 2 1 1 2 3 4 5 6 6 7 8 9 9 10 10 11 12 12 13 13 14 14 15 15 16 16 17 17 18 19 19 20 21 22 22 23 24 24 25 25 25 24 24 24 24 23 23 22 21
22 21 19 18 17 17 16 15 14 14 13 13 12 10 9 7 5 4 3 2 2 1 2 2 3 4 5 6 7 8 9 9 10 11 11 12 12 13 14 14 15 15 15 16 16 17 17 18 18 19 20 21 22 23 23 24 24 25 25 25 25 25 25 24 24 23 23 22 21
22 20 19 18 17 16 15 14 13 13 13 12 11 10 8 6 5 4 3 2 2 2 2 3 4 5 6 7 7 8 9 10 11 11 12 12 13 14 14 15 15 16 16 16 16 17 18 19 20 20 21 22 23 23 24 24 25 25 25 25 25 25 25 25 24 23 23 22 21
22 20 19 18 17 16 14 14 13 12 11 11 10 9 7 6 4 3 3 2 2 2 3 4 5 6 6 7 8 9 10 10 11 12 12 13 14 14 15 15 16 16 16 17 17 18 19 20 21 22 22 23 23 24 25 25 25 25 26 26 25 26 25 25 24 23 22 22 21
21 20 19 18 16 15 14 13 13 12 10 10 9 7 6 5 4 3 3 3 3 4 4 5 6 6 7 8 9 9 10 11 12 12 13 13 14 14 15 15 16 16 17 18 18 19 20 21 22 23 24 24 24 25 25 25 26 26 26 26 25 25 25 25 24 23 22 21 21
21 20 19 17 16 15 14 13 12 11 10 9 8 7 6 5 4 4 3 3 4 4 5 5 6 7 8 8 9 10 11 11 12 12 13 14 14 15 15 16 16 17 18 18 19 20 21 22 23 24 24 25 25 25 25 25 25 26 26 26 26 25 25 25 24 23 21 20 20
21 20 19 17 16 15 14 13 12 11 10 9 7 7 6 5 5 4 4 4 4 5 5 6 6 7 8 9 10 11 11 12 12 13 13 14 15 15 16 17 17 18 19 19 20 21 22 22 23 24 24 25 25 25 25 25 25 25 25 25 25 25 25 24 23 21 20 20 20
20 19 18 17 16 15 14 13 12 11 10 9 8 7 6 6 5 5 4 5 5 5 6 6 7 8 9 9 10 11 11 12 13 13 14 15 15 16 17 18 18 19 20 20 21 21 22 23 23 24 24 25 25 25 25 25 24 24 24 24 24 24 24 23 21 20 19 19 20
20 19 18 16 16 15 14 13 12 11 10 9 8 7 6 6 5 5 5 5 5 6 6 7 8 9 9 10 11 11 12 12 13 14 15 16 16 17 18 19 19 20 21 21 22 22 23 23 24 24 24 25 25 25 25 24 24 24 24 24 23 23 22 21 20 19 19 19 20
20 18 17 16 15 14 14 13 12 10 9 8 8 7 7 6 6 5 5 5 5 6 7 8 9 9 10 10 11 12 12 13 14 14 15 16 17 18 19 19 20 21 21 22 23 23 24 24 24 24 24 24 24 24 24 24 24 24 24 23 23 22 21 20 19 19 19 19 20
19 18 17 16 15 14 13 12 11 10 9 8 8 7 7 6 6 5 5 5 6 7 8 8 9 10 11 11 12 12 13 13 14 15 16 16 17 18 19 20 20 21 22 22 23 24 24 25 24 24 24 23 24 24 24 24 24 24 23 23 22 21 20 19 19 19 19 20 20
19 18 17 16 15 14 13 12 11 10 9 8 8 7 7 6 5 5 5 6 7 8 8 9 10 10 11 11 12 12 13 14 14 15 16 17 18 18 19 20 21 21 22 23 24 24 24 24 24 24 24 24 24 24 24 23 24 23 23 23 22 21 20 20 20 20 20 20 21
18 18 16 15 14 13 12 11 10 9 9 8 8 7 6 6 5 5 5 6 7 8 9 10 10 11 11 12 12 13 13 14 15 15 16 17 18 19 20 20 21 22 23 23 24 24 24 24 24 24 24 24 24 24 24 24 24 23 23 23 22 21 21 20 20 20 20 20 21
18 17 16 15 14 13 12 11 10 9 9 8 7 7 6 5 5 5 6 7 7 8 9 10 10 11 12 12 13 13 13 14 15 16 17 17 18 19 20 21 22 23 23 24 24 25 24 24 24 24 24 24 24 24 24 24 24 24 23 23 22 22 21 21 21 21 21 21 21
18 17 15 14 13 12 11 10 10 9 9 8 7 6 5 5 5 6 6 7 8 8 9 10 11 11 12 12 13 13 14 14 15 16 17 18 19 19 20 21 23 23 24 25 25 25 24 24 24 23 23 23 23 24 24 24 24 24 24 23 23 23 22 22 22 22 21 21 21
17 16 15 13 12 11 11 10 10 9 8 7 6 6 5 5 5 6 6 7 8 8 9 10 10 11 12 12 13 14 14 15 16 16 17 18 19 20 21 22 23 24 25 25 25 24 24 24 24 23 23 23 23 24 24 24 24 24 24 24 24 23 23 23 22 22 22 21 21
17 16 14 13 12 11 11 10 10 9 8 7 6 5 4 4 5 5 6 7 7 8 9 10 10 11 11 12 13 13 15 16 17 18 18 19 20 21 22 23 24 24 25 25 24 23 22 23 23 23 23 23 23 24 24 24 24 24 24 24 24 24 24 23 23 22 22 22 21
16 15 14 13 12 11 10 10 9 8 7 6 5 4 4 4 5 5 6 7 8 9 9 10 11 11 12 12 13 14 15 16 17 19 20 21 21 22 23 24 24 25 25 24 23 22 21 22 22 23 23 24 24 24 24 24 24 24 24 24 24 24 24 24 23 23 22 22 21
16 14 13 12 11 11 10 9 8 7 6 5 4 4 4 4 5 6 6 7 8 9 10 10 11 12 12 13 14 14 15 16 18 19 20 21 22 23 24 24 25 25 25 24 22 22 22 22 22 22 23 24 25 25 25 25 24 24 24 24 24 24 24 24 24 23 22 22 21
15 14 13 12 11 10 9 8 7 6 5 4 3 3 3 4 5 6 7 8 9 9 10 11 12 12 13 14 14 15 16 17 18 19 20 22 23 24 24 24 25 25 25 24 22 22 22 23 23 23 23 24 25 25 25 25 25 24 24 24 24 24 24 24 24 23 23 22 21
15 14 13 12 11 10 9 8 7 6 4 3 3 3 3 4 5 6 7 8 9 10 11 11 12 13 13 14 15 16 17 18 19 20 21 22 23 23 24 25 25 25 25 23 22 22 23 23 23 23 24 24 24 24 24 24 24 24 24 24 25 25 25 24 23 22 21 21 20
14 13 12 11 10 9 8 7 6 5 4 3 2 3 3 4 5 7 8 9 10 11 12 12 13 13 14 15 16 17 18 19 20 21 21 22 23 24 24 24 25 25 25 23 22 22 23 23 24 24 24 24 24 24 24 24 24 25 25 25 25 25 24 23 21 20 19 19 19
14 13 12 11 10 9 8 7 5 4 3 2 2 2 3 5 6 7 8 9 10 11 12 12 13 14 15 16 17 18 19 19 20 21 22 23 24 24 24 25 25 25 25 23 22 23 23 24 24 24 24 24 24 24 24 24 25 25 25 25 25 24 22 20 19 18 17 18 19
14 13 12 11 10 9 8 6 5 4 2 1 2 3 4 5 6 7 8 9 10 11 12 12 13 15 15 16 17 19 20 20 21 21 22 23 24 24 24 25 25 25 24 23 22 23 23 24 24 24 24 24 24 24 24 24 25 25 25 24 23 21 20 18 17 17 17 18 20
13 12 11 11 10 8 7 6 4 3 2 1 2 3 5 6 7 7 8 9 10 11 12 13 14 15 16 17 18 19 20 21 21 22 22 23 24 24 24 25 25 25 24 22 22 23 23 24 24 24 25 25 24 24 24 25 25 24 23 22 20 19 17 16 16 17 18 20 22
12 12 11 10 9 8 7 5 4 2 1 1 3 4 5 6 7 7 8 9 10 11 12 14 15 16 17 18 19 20 21 21 22 22 23 23 23 24 24 24 25 24 23 22 22 23 23 24 24 24 25 24 24 24 24 24 24 23 21 20 18 17 17 17 18 19 20 22 24
12 11 11 10 8 7 6 5 3 2 1 2 3 4 6 6 7 8 9 10 11 12 13 14 15 16 17 18 20 21 21 22 22 22 23 23 23 23 24 24 24 24 23 22 22 22 23 23 24 24 24 24 24 24 24 23 22 21 20 19 18 18 18 19 19 21 22 23 24
11 11 10 9 8 7 5 4 3 2 2 3 4 5 6 7 7 8 9 10 11 13 13 14 15 16 17 18 19 20 21 22 23 23 23 23 23 23 24 24 24 24 23 22 22 22 23 23 24 24 24 24 23 23 23 22 22 21 20 20 19 19 20 20 21 22 22 23 24
11 10 10 8 7 6 5 3 2 2 3 4 5 5 6 7 8 9 10 11 12 13 14 15 16 17 18 19 20 20 21 22 23 23 23 23 23 23 23 24 24 24 24 22 21 22 22 23 23 24 24 24 23 23 22 21 21 20 20 20 20 20 20 21 22 22 22 23 25
10 9 9 8 7 5 4 3 2 3 4 4 5 6 7 7 8 9 10 11 13 14 15 16 17 18 18 19 20 21 21 22 22 23 23 23 23 23 23 24 24 24 24 23 21 21 22 22 23 23 23 23 23 22 22 21 20 20 20 20 20 20 21 21 22 22 23 24 25
9 9 8 7 6 5 3 3 3 3 4 5 5 6 7 8 9 10 10 12 13 15 16 17 18 18 19 19 20 21 21 21 22 22 23 23 23 23 23 23 23 23 23 23 21 21 21 22 22 23 23 23 23 23 22 21 20 20 20 20 21 21 21 21 22 23 24 25 26
9 8 7 6 5 4 3 3 3 4 4 5 5 6 7 8 9 10 11 12 13 15 16 17 18 18 19 19 20 21 22 22 22 22 22 23 22 22 22 23 23 23 23 22 21 20 21 21 22 22 23 22 22 22 21 21 20 20 20 20 21 22 22 22 22 23 25 26 26
9 8 7 5 4 3 3 3 3 4 4 5 6 7 8 9 10 11 12 13 13 15 16 17 18 18 19 19 20 21 22 22 22 22 22 22 22 22 22 22 22 22 22 22 21 20 20 21 21 22 22 22 22 21 21 20 20 20 20 21 22 22 23 23 23 24 25 26 26
8 7 6 4 4 3 3 3 3 3 4 5 6 7 8 9 11 12 13 13 14 15 16 17 18 18 19 20 20 21 22 23 23 22 22 22 22 22 22 22 22 22 22 21 21 20 20 20 21 22 22 22 22 21 20 20 20 21 21 22 22 23 23 24 25 25 24 23 23
Wind_Direction
152 152 151 151 150 148 146 146 147 149 151 153 154 157 160 162 161 163 168 171 165 151 124 82 59 47 35 23 14 6 1 359 357 356 355 353 350 346 342 339 336 333 330 329 328 327 327 327 327 327 327 328 328 329 331 332 333 333 333 333 332 331 330 329 328 328 327 326 324
153 153 153 153 152 150 148 147 148 150 152 156 159 163 166 168 167 166 165 163 159 148 119 77 52 37 24 16 11 8 6 5 4 3 2 358 355 351 347 344 341 337 334 332 330 329 328 327 327 327 327 327 328 329 331 332 333 333 333 332 332 331 330 328 328 327 326 325 324
154 155 155 155 154 152 150 148 150 152 155 159 164 167 168 167 165 162 160 159 158 150 124 72 41 24 14 8 8 8 7 6 5 4 2 360 357 353 349 345 342 339 335 332 330 329 328 327 327 327 328 328 329 330 331 332 333 333 333 332 331 331 329 328 327 326 325 324 323
155 155 155 155 154 153 152 153 154 156 158 161 165 165 163 161 160 159 160 161 160 156 131 56 21 10 5 4 5 7 7 6 4 2 0 358 356 352 349 345 341 338 335 332 330 329 328 327 327 327 328 329 330 331 332 333 334 333 332 332 331 330 329 328 327 326 325 323 322
153 154 154 153 153 153 154 155 156 157 159 163 162 160 158 158 159 160 163 164 164 158 121 33 6 359 359 3 5 7 7 6 3 0 358 357 354 351 347 344 340 337 335 332 330 329 328 327 327 327 328 329 330 331 333 334 334 333 332 331 331 330 329 328 327 326 325 323 321
151 151 152 152 152 152 153 154 155 156 158 162 160 158 156 157 160 161 161 160 159 148 86 19 358 356 359 5 8 9 8 5 3 360 357 354 351 349 346 343 340 337 334 332 331 330 329 329 329 329 330 331 331 332 333 334 333 332 331 330 330 330 329 328 327 326 325 323 321
150 150 150 150 151 151 151 151 152 154 157 160 160 158 157 158 160 159 156 152 143 125 56 3 358 3 8 12 13 10 7 5 1 359 356 353 350 347 344 341 339 337 335 334 333 332 331 331 331 331 332 333 333 333 334 334 333 331 330 329 329 329 329 328 327 326 324 322 320
149 149 149 150 150 150 150 150 151 153 156 160 161 160 159 159 157 152 144 134 124 96 30 12 13 18 19 18 14 9 6 2 360 357 355 352 349 346 343 340 338 337 336 336 335 334 333 333 333 333 334 334 333 333 333 333 332 331 330 329 328 328 328 327 327 325 323 321 319
147 148 149 149 149 149 149 150 152 155 158 160 161 161 159 156 151 142 133 123 103 66 39 31 29 27 23 19 13 8 3 0 358 356 354 351 348 345 342 340 338 337 337 337 337 336 335 334 334 334 334 334 333 332 332 332 331 330 329 328 327 327 327 327 326 324 322 320 318
146 147 148 148 149 149 150 151 155 158 159 159 159 158 156 152 145 135 122 101 79 61 49 43 36 30 24 17 12 7 3 360 357 355 353 351 348 344 342 340 338 337 337 338 338 337 336 335 334 334 333 333 332 332 331 331 331 330 329 327 326 326 326 326 325 323 321 319 317
147 148 149 149 150 151 151 152 155 158 158 156 154 152 150 146 138 125 106 87 79 66 54 45 35 28 21 15 10 6 2 360 357 354 351 349 346 343 340 339 338 337 337 337 337 337 336 335 334 333 333 332 332 331 331 331 330 329 328 327 326 325 324 324 324 323 321 318 317
148 149 150 150 151 152 152 152 154 155 155 152 149 147 144 138 128 114 101 91 78 65 53 42 33 24 17 12 8 5 1 359 356 353 350 347 344 341 339 338 337 337 337 337 337 336 335 335 334 333 332 331 331 331 330 330 329 328 327 326 325 324 323 323 323 322 320 318 317
149 150 151 151 152 152 152 152 153 153 152 150 146 142 137 130 120 110 100 88 73 61 50 38 29 21 15 10 7 3 0 358 355 351 348 345 343 340 339 338 337 336 336 336 336 336 335 334 334 333 332 331 330 330 330 329 328 327 326 325 324 323 322 322 322 322 320 319 318
151 151 151 152 152 152 152 152 152 152 150 147 143 137 131 123 115 106 94 81 67 55 45 35 26 20 14 9 5 2 359 356 352 349 346 343 341 339 338 337 336 336 336 335 335 335 335 334 334 333 331 330 330 329 329 328 327 326 325 323 322 321 321 321 322 322 321 319 319
151 152 152 152 153 152 151 150 150 149 147 143 139 133 127 119 110 100 86 72 60 48 38 30 23 19 14 9 4 0 357 353 350 347 344 342 340 339 337 336 336 336 335 335 335 335 335 334 333 332 331 330 329 328 328 327 326 325 323 322 321 321 321 321 322 321 320 320 320
152 153 153 153 153 152 151 149 148 146 143 138 133 129 123 115 106 93 80 65 52 41 31 25 20 16 12 8 3 358 354 351 349 346 343 341 339 337 336 336 335 336 336 336 335 335 334 334 333 332 331 329 328 327 327 326 325 324 323 322 321 321 321 321 321 320 320 320 320
153 154 155 156 155 152 150 148 146 143 139 134 129 124 118 110 100 87 72 56 43 34 27 21 16 12 9 5 1 356 352 349 347 344 342 339 337 336 335 335 336 336 336 336 335 335 334 333 333 332 331 329 328 327 326 325 324 323 322 322 322 321 321 321 320 320 320 320 321
154 156 157 157 155 152 149 146 143 139 135 130 126 120 113 105 94 79 62 47 36 28 22 18 14 9 5 1 358 355 351 347 344 342 340 337 336 335 335 335 336 336 336 336 335 335 334 333 333 332 331 329 328 326 325 324 323 322 322 322 322 321 321 320 320 320 320 320 320
155 157 157 157 154 150 147 143 139 135 131 127 123 117 109 99 86 70 55 41 31 23 17 13 10 6 2 358 355 352 349 345 342 339 338 336 335 335 335 336 336 336 336 336 336 335 334 334 333 332 331 329 327 326 324 323 323 322 322 322 321 321 320 320 320 319 320 319 320
156 156 156 154 151 147 143 139 136 132 129 126 121 115 105 93 78 62 48 36 27 21 15 9 5 1 359 355 352 349 347 344 340 338 336 335 335 336 336 337 337 337 337 336 336 335 335 334 333 332 330 328 326 325 324 323 322 322 321 321 321 320 320 319 319 319 319 319 319
154 154 153 150 147 143 139 136 134 131 129 125 120 111 100 86 70 55 42 32 23 17 11 6 1 358 355 352 349 347 345 342 339 337 336 336 336 337 337 338 338 337 337 337 337 336 336 335 333 331 329 327 325 324 323 322 322 321 321 320 320 320 319 319 319 319 318 318 318
152 151 149 146 144 140 138 135 133 131 128 123 117 107 94 79 63 48 36 27 19 13 7 3 359 355 352 350 347 345 343 341 338 337 336 336 337 338 339 339 339 339 338 338 338 337 336 334 332 329 327 325 324 323 322 321 321 320 320 320 320 319 319 319 318 318 317 317 318
150 148 147 144 142 140 138 136 134 131 127 122 113 102 88 72 56 43 32 23 14 9 4 0 357 354 351 349 346 344 342 340 338 338 338 338 339 339 340 340 340 340 340 339 339 337 335 332 329 327 326 324 323 322 321 321 321 320 320 320 320 319 319 319 318 317 317 317 317
149 147 146 144 143 140 138 136 133 130 125 119 109 96 79 63 48 37 27 18 11 6 2 359 356 353 351 349 347 345 343 341 339 339 339 339 340 341 341 342 342 341 340 339 338 335 332 329 327 326 325 324 323 322 321 321 321 320 320 320 319 319 319 318 318 317 317 317 317
149 148 146 145 143 142 139 136 132 128 122 115 104 89 70 53 40 29 21 14 9 4 0 358 355 353 351 350 348 346 344 342 341 340 340 340 341 342 342 343 342 341 340 339 336 332 329 328 327 326 325 324 323 322 322 321 321 321 320 320 319 319 318 317 317 316 316 316 317
150 149 148 147 145 142 139 136 132 126 120 112 98 80 61 44 32 23 16 10 6 3 0 357 356 354 352 350 348 346 345 344 343 342 341 341 341 342 343 343 342 341 340 338 333 330 329 328 328 327 326 325 324 323 322 322 321 321 321 320 319 319 318 317 316 316 316 316 316
152 151 151 150 148 144 140 136 132 126 120 109 94 71 51 36 26 18 12 8 4 2 360 358 356 354 352 349 347 346 345 344 343 343 342 342 342 342 342 342 342 341 339 337 333 330 330 330 329 328 327 326 325 324 323 322 322 321 321 320 319 318 317 316 315 316 316 316 316
155 155 154 153 151 148 144 139 134 129 121 108 88 62 42 30 21 15 10 6 3 1 360 358 356 353 350 348 346 345 344 344 344 343 343 343 342 342 342 341 341 341 340 337 333 331 331 330 330 329 328 327 326 325 324 323 322 322 321 320 319 318 317 315 315 315 316 316 316
158 158 158 157 155 151 147 142 139 133 125 108 79 50 34 25 19 13 9 5 3 1 359 356 353 351 349 346 345 344 343 343 344 344 343 343 342 342 341 341 340 340 340 337 334 332 332 331 330 330 329 329 327 326 324 324 323 322 321 320 319 318 316 316 316 316 316 317 318
162 162 162 160 158 154 151 148 144 138 127 104 66 39 29 25 20 14 8 4 2 360 356 353 350 348 346 344 343 342 342 343 343 344 343 343 342 341 341 340 340 341 341 338 335 333 332 332 331 331 330 330 328 327 325 324 323 322 320 319 318 318 317 317 317 319 320 321 321
165 165 165 163 160 157 155 152 149 143 131 102 54 37 30 25 20 14 7 2 359 356 353 350 347 345 344 343 342 341 341 342 343 343 343 342 341 340 340 340 340 341 340 338 335 333 333 333 333 332 332 331 330 328 326 325 324 322 320 319 319 319 319 320 321 323 324 324 323
168 168 167 165 163 160 157 156 153 149 137 92 50 38 32 26 19 13 6 360 355 352 349 347 344 343 342 341 340 340 340 341 342 342 342 341 340 339 339 339 340 340 339 337 335 334 334 334 334 333 333 332 330 329 327 326 324 322 321 321 320 321 322 324 325 326 325 325 323
169 170 169 167 164 162 160 160 159 156 136 77 50 39 31 23 17 10 3 357 352 348 346 344 342 340 339 338 338 339 339 340 340 341 340 340 339 338 338 338 339 339 338 336 335 334 335 335 334 334 333 333 331 329 328 327 325 323 322 322 323 324 325 326 327 326 325 323 320
171 171 170 168 166 164 163 163 163 154 115 69 49 38 28 20 13 6 0 355 349 345 342 341 339 337 336 336 337 337 337 338 339 339 339 339 338 338 337 337 338 338 338 335 335 335 335 335 335 335 334 333 332 331 329 327 326 324 323 323 324 325 326 326 326 324 322 319 316
172 171 170 168 167 166 167 167 162 136 88 61 46 36 25 17 9 2 356 350 344 340 338 338 337 335 335 336 336 336 336 337 337 338 338 338 337 337 336 336 337 338 338 336 335 335 335 336 335 335 335 334 333 332 330 328 326 324 323 323 324 325 325 325 323 321 318 315 313
172 171 169 168 168 169 169 165 147 108 72 53 40 29 19 12 6 359 352 345 340 336 335 335 335 335 335 336 336 335 336 335 335 336 337 337 337 336 335 335 336 338 339 338 336 335 336 336 335 335 335 334 334 333 331 329 326 324 323 323 323 324 323 322 320 317 315 313 310
172 171 170 169 170 170 166 152 120 82 60 46 32 21 12 5 359 354 348 341 337 334 333 333 333 334 335 335 334 334 334 334 334 335 335 336 336 335 334 333 335 337 339 339 336 335 335 335 335 335 335 334 334 333 332 329 327 324 324 323 322 322 321 319 317 315 312 311 309
171 171 170 170 169 166 154 129 93 68 52 37 25 15 6 358 352 348 343 338 334 332 331 331 332 333 333 333 332 332 332 333 334 334 334 335 335 334 333 332 333 336 338 339 337 335 335 334 335 335 335 334 334 333 331 329 327 325 323 322 321 320 318 317 315 312 310 308 308
171 170 169 168 164 155 134 106 79 57 42 27 17 8 360 352 346 341 338 335 332 330 329 329 329 331 331 331 331 330 331 332 333 334 334 334 334 334 333 331 332 335 337 338 336 334 333 333 334 334 335 334 334 333 331 329 326 324 323 321 320 318 317 315 312 309 307 307 307
169 168 166 162 154 138 115 91 70 50 33 19 8 360 352 344 339 336 334 332 330 329 328 327 328 329 330 331 330 329 330 331 332 333 334 334 334 333 333 332 332 334 336 337 335 333 332 332 333 333 334 334 333 332 330 328 325 323 321 320 318 316 315 313 310 307 306 306 307
166 163 160 153 139 121 101 80 61 42 25 12 1 352 344 337 333 331 330 329 329 328 327 327 327 328 329 330 330 329 329 330 332 333 334 334 334 334 333 333 333 333 334 335 334 331 330 331 332 333 333 333 333 332 330 327 324 322 320 318 316 314 312 310 308 306 306 307 311
Height
776 777 778 780 781 782 783 784 785 786 787 788 788 789 789 790 791 791 792 792 793 793 793 793 793 793 793 793 792 792 792 791 791 790 790 789 789 788 788 788 787 787 786 786 785 784 784 783 782 781 781 780 779 778 777 777 776 775 774 773 773 772 771 770 769 768 768 767 767
776 777 778 780 781 782 783 784 785 786 787 788 788 789 789 790 791 791 792 792 792 793 793 793 793 793 792 792 792 791 791 791 790 790 789 789 788 788 788 787 787 786 786 785 784 784 783 782 782 781 780 779 778 778 777 776 775 774 773 773 772 771 770 769 768 768 767 766 766
776 778 779 780 781 782 783 784 785 786 787 788 788 789 789 790 791 791 792 792 792 792 792 792 792 792 792 792 791 791 790 790 789 789 788 788 788 787 787 786 786 785 785 784 784 783 783 782 781 780 779 778 778 777 776 775 774 773 773 772 771 770 769 769 768 767 766 766 765
777 778 779 780 781 782 783 783 785 786 787 787 788 789 790 790 791 791 791 792 792 792 792 792 792 792 791 791 791 790 790 789 789 788 788 788 787 787 786 786 785 785 784 784 783 783 782 781 780 779 779 778 777 776 775 774 773 773 772 771 770 769 769 768 767 766 766 765 764
777 778 779 780 781 782 783 784 784 785 786 787 788 789 790 790 791 791 791 791 792 792 792 791 791 791 791 790 790 790 789 789 788 788 787 787 786 786 785 785 785 784 784 783 783 782 781 780 780 779 778 777 776 776 775 774 773 772 771 770 770 769 768 767 766 765 765 764 763
777 778 779 780 781 782 783 784 785 786 787 788 788 789 790 790 791 791 791 791 791 791 791 791 791 791 790 790 789 789 789 788 788 787 787 786 786 785 785 784 784 783 783 783 782 781 781 780 779 778 777 777 776 775 774 773 772 771 770 769 769 768 767 766 765 764 763 763 762
777 778 779 780 781 782 783 784 785 786 787 788 788 789 790 790 790 791 791 791 791 791 791 791 790 790 790 789 789 788 788 788 787 787 786 785 785 784 784 784 783 783 783 782 781 780 780 779 778 777 777 776 775 774 773 772 771 770 769 768 768 767 766 765 764 763 763 762 761
777 778 779 780 781 782 783 784 785 786 787 788 788 789 790 790 790 790 791 791 791 790 790 790 790 789 789 789 788 788 788 787 787 786 785 785 784 784 783 783 783 782 782 781 780 780 779 778 778 777 776 775 774 773 772 772 771 769 768 767 767 766 765 764 763 763 762 761 760
777 778 779 780 781 782 783 784 785 786 787 788 788 789 790 790 790 790 790 790 790 790 790 790 789 789 789 788 788 788 787 787 786 785 785 784 784 783 783 783 782 782 781 780 780 779 778 777 777 776 775 774 773 772 771 771 769 768 768 767 765 765 764 763 763 762 761 760 759
776 778 779 780 781 782 783 784 785 786 787 788 788 789 789 790 790 790 790 790 790 790 789 789 789 788 788 788 788 787 787 786 785 785 784 784 783 783 783 782 782 781 780 780 779 778 777 777 776 775 774 773 772 771 770 769 768 768 766 765 764 763 763 762 761 760 759 758 758
776 778 779 780 781 782 783 784 785 786 787 788 788 789 789 789 789 789 789 789 789 789 789 789 788 788 788 788 787 787 786 785 785 784 784 783 783 783 782 782 781 780 780 779 778 778 777 776 775 774 773 772 771 770 769 768 768 766 765 764 763 763 761 761 760 759 758 757 756
776 778 779 780 781 782 783 784 785 786 787 788 788 788 789 789 789 789 789 789 789 789 789 788 788 788 788 787 787 786 785 785 784 784 783 783 783 782 782 781 780 780 779 778 778 777 776 775 774 773 772 771 770 769 768 767 766 765 764 763 762 761 760 759 759 758 757 756 755
777 778 779 781 782 783 783 784 785 786 787 787 788 788 788 788 788 789 789 789 789 788 788 788 788 788 787 787 786 785 785 784 784 783 783 783 782 782 781 780 780 779 778 778 777 776 775 774 773 772 771 770 769 768 768 766 765 764 763 762 761 760 759 758 757 757 756 755 754
777 778 780 781 782 783 783 784 785 786 787 787 787 788 788 788 788 788 788 788 788 788 788 788 788 787 787 786 786 785 784 784 783 783 783 782 782 781 780 780 779 778 778 777 776 775 774 773 772 771 770 769 768 767 766 765 764 763 762 761 760 759 758 757 756 755 755 754 753
778 779 780 781 782 783 783 784 785 786 786 787 787 787 788 788 788 788 788 788 788 788 788 787 787 787 786 786 785 784 784 783 783 783 782 781 781 780 780 779 778 778 777 775 774 774 773 772 771 770 769 768 767 766 765 764 763 763 761 760 759 758 757 756 755 754 753 753 752
778 779 780 781 782 783 783 784 785 785 786 786 787 787 787 788 788 788 788 788 788 788 787 787 786 786 786 785 784 784 783 783 782 782 781 781 780 780 779 778 778 777 775 774 773 773 772 771 770 769 768 767 766 765 764 763 762 761 760 759 758 757 756 755 754 753 752 752 751
778 779 780 781 782 782 783 784 784 785 785 786 786 787 787 787 787 788 788 788 787 787 787 786 786 785 785 784 784 783 783 782 782 781 781 780 780 779 778 778 777 776 774 773 772 771 770 769 768 768 767 766 765 764 763 762 761 760 759 758 757 756 755 754 753 752 751 750 749
778 779 780 781 782 782 783 783 784 785 785 786 786 786 787 787 787 787 787 787 787 787 786 786 785 785 784 784 783 783 782 782 781 781 780 780 779 779 778 777 776 775 774 773 771 770 769 768 767 766 766 765 764 763 762 761 760 759 758 757 756 755 754 753 752 751 750 749 748
778 779 780 781 782 782 783 783 784 784 785 785 786 786 786 787 787 787 787 787 787 786 786 785 785 784 784 783 783 782 782 781 781 780 780 779 779 778 777 776 775 774 773 772 770 769 768 767 766 765 764 763 762 761 760 759 758 758 756 755 754 753 753 752 751 750 749 748 747
779 779 780 781 782 782 783 783 784 784 785 785 786 786 786 786 786 787 787 786 786 786 785 785 784 784 783 783 782 782 781 781 780 780 779 779 778 777 776 775 774 773 772 770 769 768 767 766 765 764 763 762 761 760 759 758 757 756 755 754 753 753 752 751 750 749 748 747 746
779 780 780 781 782 782 783 783 783 784 784 785 785 786 786 786 786 786 786 786 786 785 785 784 784 783 783 782 782 781 781 780 780 779 779 778 777 776 775 774 773 772 770 769 768 767 766 765 764 763 762 761 760 759 758 757 756 755 754 753 752 751 750 749 748 748 747 746 745
779 780 780 781 782 782 782 783 783 784 784 785 785 785 786 786 786 786 786 786 785 785 785 784 783 783 782 782 781 781 780 780 779 779 778 777 776 775 774 773 772 770 769 768 767 766 764 763 763 762 761 760 759 758 757 756 754 753 752 751 750 750 749 748 747 746 745 744 743
779 780 781 781 782 782 782 783 783 784 784 785 785 785 785 785 785 785 785 785 785 785 784 784 783 783 782 781 781 780 780 779 779 778 777 777 775 774 773 772 771 769 768 767 766 765 763 763 762 761 760 759 758 757 756 754 753 752 751 750 749 748 747 747 746 745 744 743 742
779 780 780 781 781 782 782 783 783 784 784 784 785 785 785 785 785 785 785 785 784 784 784 783 783 782 781 781 780 780 779 779 778 777 776 775 774 773 772 771 770 768 768 766 765 764 763 762 761 760 759 758 757 755 754 753 752 751 750 748 747 746 746 745 744 743 743 742 741
779 780 780 781 781 782 782 783 783 783 784 784 785 785 785 785 785 785 784 784 784 783 783 783 782 781 781 780 780 779 779 778 778 777 775 774 773 772 771 770 769 768 767 765 765 764 763 762 761 759 758 757 755 754 753 752 751 750 748 747 746 745 744 743 743 742 741 740 739
779 780 780 781 781 782 782 783 783 783 784 784 784 785 785 785 784 784 784 784 783 783 783 782 781 781 780 780 779 779 778 778 777 776 775 773 772 771 770 769 768 767 766 765 764 763 762 761 760 759 758 756 754 753 752 750 749 748 747 746 745 744 743 742 741 740 739 739 738
779 780 780 781 781 782 782 783 783 783 784 784 784 784 784 784 784 784 783 783 783 782 782 781 781 780 780 779 779 778 778 777 776 775 774 773 772 770 769 768 767 766 765 764 763 762 761 760 759 758 757 755 753 752 750 749 748 747 746 745 744 743 742 741 739 738 738 737 737
779 779 780 781 781 782 782 783 783 783 783 784 784 784 784 784 783 783 783 783 782 782 781 781 780 780 779 779 778 778 777 776 775 774 773 772 771 770 768 768 767 765 764 763 763 761 760 759 758 757 756 754 753 751 749 748 747 746 745 744 743 742 741 740 738 738 737 736 735
779 779 780 780 781 781 782 782 783 783 783 783 784 784 784 783 783 783 783 782 782 781 781 780 780 779 779 778 778 777 777 776 775 773 772 771 770 769 768 767 766 765 763 763 762 760 759 758 757 756 754 753 752 750 748 747 746 745 743 743 742 741 739 738 738 737 736 735 734
778 779 780 780 781 781 782 782 783 783 783 783 783 783 783 783 783 782 782 782 781 781 780 780 779 779 778 778 777 777 776 775 774 773 772 770 769 768 767 766 765 764 763 762 761 760 758 757 756 754 753 752 750 749 748 746 745 744 743 741 740 739 738 738 737 736 735 734 733
779 779 780 780 781 781 782 782 783 783 783 783 783 783 783 783 782 782 781 781 781 780 780 780 779 779 778 778 777 776 775 774 773 772 771 769 768 767 766 765 764 763 762 761 760 759 758 756 755 753 752 751 749 748 747 745 744 743 742 741 739 738 738 737 736 735 734 733 732
779 779 780 780 781 781 782 782 782 783 783 783 783 783 783 782 782 782 781 781 780 780 780 779 779 778 777 777 776 775 774 773 772 771 770 769 768 767 765 764 763 762 761 760 759 758 757 755 754 752 751 750 748 747 746 744 743 742 741 740 739 738 737 736 735 734 733 733 732
779 779 780 780 781 781 782 782 782 783 783 783 783 782 782 782 781 781 781 780 780 780 779 779 778 778 777 776 775 774 773 772 771 770 769 768 767 766 765 763 763 761 760 759 758 757 756 754 753 751 750 748 747 746 745 743 742 741 740 739 738 738 737 736 735 733 733 732 731
779 779 780 780 781 781 782 782 782 783 783 783 782 782 782 781 781 781 780 780 780 779 779 778 778 777 776 775 774 773 772 771 770 769 768 768 766 765 764 763 762 761 760 759 758 756 755 753 752 750 749 748 746 745 744 743 741 740 739 738 738 737 736 735 734 733 732 731 729
779 779 780 780 781 781 782 782 782 782 782 782 782 781 781 781 781 780 780 780 779 779 778 778 778 777 776 775 774 773 771 770 769 768 768 767 765 764 763 762 761 760 759 758 757 755 754 752 751 750 748 747 746 744 743 742 741 739 738 738 737 736 735 734 733 732 731 730 728
779 779 780 780 781 781 782 782 782 782 782 781 781 781 781 781 780 780 780 779 779 778 778 777 777 776 775 774 773 772 771 770 768 768 767 766 765 763 762 761 760 759 758 757 756 754 753 752 750 749 748 746 745 744 743 741 740 738 738 737 735 735 734 733 732 731 730 728 727
779 779 780 781 781 782 782 782 782 781 781 781 781 780 780 780 780 780 780 779 778 778 777 776 776 775 774 773 772 771 770 769 768 767 766 765 764 763 761 760 759 758 757 756 755 753 752 751 750 748 747 746 744 743 742 741 739 738 737 736 734 734 733 732 730 729 728 726 725
779 779 780 781 781 781 782 781 781 781 781 780 780 780 780 780 780 779 779 779 778 777 777 776 775 774 773 772 771 770 769 768 768 766 765 764 763 762 761 759 758 757 756 755 754 753 752 750 749 748 747 745 743 742 741 740 738 737 736 735 733 733 732 731 729 727 726 724 723
779 780 780 781 781 781 781 781 781 780 780 780 780 780 780 779 779 779 779 778 778 777 776 775 774 773 772 771 770 769 768 768 767 766 765 763 763 761 760 758 757 756 755 754 753 752 751 750 748 747 746 745 743 742 740 739 738 736 735 734 733 731 730 729 728 725 723 722 721
779 780 780 781 781 781 781 780 780 780 780 780 780 780 779 779 779 779 778 778 777 776 775 774 773 772 771 771 769 768 767 766 766 765 764 763 762 760 759 758 756 755 754 753 752 751 750 749 748 747 745 744 743 741 740 738 737 735 734 733 732 730 728 726 725 723 722 720 719
779 780 780 780 780 780 780 780 780 780 780 780 779 779 779 779 778 778 778 777 776 775 774 773 773 772 771 770 769 768 766 765 764 764 763 762 761 759 758 757 755 754 753 752 751 750 749 748 747 746 745 743 742 741 739 738 736 734 733 732 730 728 726 724 723 721 720 719 718